Torna al catalogo

LEMUR 2 DEMBITZ

AttivoScienzaSSO
NORAD 42842·PAYLOAD·🇺🇸 United States

Lanciato Jul 14, 2017 da Baikonur Cosmodrome

Loading…

Prossimi Passaggi (prossime 24 ore)

TLE

AggiornatoSource: Space-Track

Epoca: Sep 14, 2026, 11:29 UTC

1 42842U 17042T   26257.47878367  .00013691  00000-0  43373-3 0  9999
2 42842  97.3846  78.7273 0007293  64.3758 295.8237 15.32821629502010

Traccia LEMUR 2 DEMBITZ in tempo reale con AllMySat

Download on the App Store